Regional Weather Roundup
Issued by NWS Wakefield, VA

Home | Current Version | Previous Version | Graphics & Text | Print | Product List | Glossary On
Versions: 1 2 3 4 5 6 7 8 9 10 11 12 13 14 15 16 17 18 19 20 21 22 23 24 25 26 27 28 29 30 31 32 33 34 35 36 37 38 39 40 41 42 43 44 45 46 47 48 49 50
400
ASUS41 KAKQ 292115
RWRAKQ

REGIONAL WEATHER ROUNDUP
NATIONAL WEATHER SERVICE WAKEFIELD VA
500 PM EDT SAT APR 29 2017

Note: "fair" indicates few or no clouds below 12,000 feet with no
significant weather and/or obstructions to visibility. * = Denotes
station may not report precipitation (e.g., rain,snow,etc.),
thunder or fog.

VAZ042-051-052>054-056-292200-
NORTHERN VIRGINIA

CITY           SKY/WX    TMP DP  RH WIND       PRES   REMARKS
WASH NATIONAL  CLOUDY    90  63  40 W9        30.03F
DULLES         CLOUDY    86  67  52 W5        30.04F
FORT BELVOIR   CLOUDY    90  66  43 SW5       30.03S
QUANTICO       CLOUDY    90  68  48 W7        30.03F
FREDERICKSBRG* CLOUDY    90  70  52 SW12      30.03F HX  95
STAFFORD*      CLOUDY    87  69  54 SW8       30.07F
WARRENTON      CLOUDY    89  62  41 SW6       30.04F
CULPEPER*      CLOUDY    87  68  52 SW6       30.05S
MANASSAS*        N/A     88  67  49 W5        30.04F
LEESBURG*      CLOUDY    88  70  55 CALM      30.05F
WINCHESTER     CLOUDY    82  64  54 NW5       30.06F
FRONT ROYAL*   CLOUDY    86  68  54 W3        30.05F
LURAY*         CLOUDY    86  64  48 CALM      30.06F
$$

VAZ048-049-060>072-079>083-292200-
CENTRAL AND SOUTH CENTRAL VIRGINIA

CITY           SKY/WX    TMP DP  RH WIND       PRES   REMARKS
RICHMOND       CLOUDY    88  72  58 SW14      30.06F
CHESTERFIELD*  FAIR     N/A N/A N/A SW12      30.08S
PETERSBURG*    MOSUNNY   88  68  52 SW12      30.09S
HANOVER        CLOUDY    88  68  51 W10       30.08S
TAPPAHANNOCK*  CLOUDY    90  61  38 SW8       30.06F
QUINTON*       FAIR      88  73  60 SW6       30.07S HX  95
CHARLOTTSVILLE CLOUDY    88  68  51 SW8       30.06F
GORDONSVILLE*  CLOUDY    88  69  53 SW12      30.05S
ORANGE*        CLOUDY    86  66  51 SW9       30.05F
LOUISA*          N/A    N/A N/A N/A MISG      30.06F
BUMPASS*       FAIR      87  70  56 SW9G16    30.06F
FARMVILLE*     SUNNY     88  71  57 SW14      30.07F
CREWE*         FAIR      86  73  64 SW9       30.09F
FORT PICKETT*  NOT AVBL
CHASE CITY*    FAIR      86  71  59 SE6       30.11F
CLARKSVILLE*   FAIR      86  73  66 S3        30.11F
SOUTH HILL*    MOSUNNY   85  74  68 SW12      30.17F
LAWRENCEVILLE* FAIR      87  72  61 MISG      30.11S
EMPORIA*       MOSUNNY   86  72  62 S8        30.12S
$$

VAZ088>098-292200-
SOUTHEAST VIRGINIA

CITY           SKY/WX    TMP DP  RH WIND       PRES   REMARKS
NORFOLK        MOSUNNY   90  71  53 W12G21    30.08F HX  96
VIRGINIA BEACH MOSUNNY   87  70  56 SW14G23   30.07F
NORFOLK NAVAL  CLOUDY    88  70  55 SW12G20   30.09F
WEST POINT*    SUNNY     88  69  54 SW9       30.08S
SALUDA*        FAIR      88  74  63 SW6       30.05F HX  96
NEWPORT NEWS   SUNNY     88  72  58 SW17      30.07F
LANGLEY AFB    SUNNY     88  74  63 SW17      30.07F HX  96
FORT EUSTIS    SUNNY     89  73  59 SW9       30.06F HX  97
WILLIAMSBURG*  SUNNY     91  73  55 SW9       30.08F HX 100
HR EXEC AP*    FAIR      90  73  58 SW10      30.06F HX  98
FRANKLIN*      SUNNY     87  72  61 S10       30.11S
US460-WAKEFLD  MOSUNNY   88  72  58 SW8       30.09F
$$

VAZ020-022-025-037-045-292200-
WEST CENTRAL AND SOUTHWEST VIRGINIA

CITY           SKY/WX    TMP DP  RH WIND       PRES   REMARKS
STAUNTON*      CLOUDY    85  64  50 SW7       30.10F
WAYNESBORO*    CLOUDY    85  69  57 CALM      30.10F
HOT SPRINGS VA CLOUDY    77  54  44 S5        30.25F
LYNCHBURG      SUNNY     86  68  54 S10       30.11F
DANVILLE       SUNNY     86  71  60 S7        30.11F
SOUTH BOSTON*  FAIR      86  71  59 S9        30.11F
MARTINSVILLE   MOSUNNY   85  67  54 SW6       30.15S
ROANOKE        PTSUNNY   86  69  56 S13       30.11F
BLACKSBURG     CLOUDY    83  65  53 S9        30.17S
DUBLIN*        PTSUNNY   82  61  49 S9        30.16S
MARION*        LGT RAIN  66  62  85 E3        30.20R
HILLSVILLE*    SUNNY     78  68  70 CALM      30.19S
RICHLANDS*     FAIR      85  57  38 W7        30.14F
WISE*          PTSUNNY   82  57  42 CALM      30.14F
ABINGDON*      MOSUNNY   89  59  35 W8        30.10F
$$

MDZ021>025-VAZ099-100-292200-
SOUTHERN MARYLAND AND THE DELMARVA PENINSULA

CITY           SKY/WX    TMP DP  RH WIND       PRES   REMARKS
PATUXENT RIVER CLOUDY    89  74  60 SW8       30.03F HX  98
BAY BRIDGE APT MOSUNNY   86  66  51 W5        30.03F
LEONARDTOWN    MOSUNNY   88  68  51 SW12      30.06S
DOVER          MOSUNNY   88  78  72 W12       30.02R HX 102
GEORGETOWN     MOSUNNY   90  68  48 W8G18     30.04R
EASTON         MOSUNNY   88  70  55 W8        30.08S
CAMBRIDGE      SUNNY     88  72  58 SW8G14    30.04S
SALISBURY      SUNNY     86  72  62 SW16      30.04F
OCEAN CITY     MOSUNNY   86  71  60 SW14      30.05F
WALLOPS ISLAND SUNNY     80  72  76 S10       30.06F
ACCOMACK*      MOSUNNY   87  73  63 SW13G20   30.06F
$$

NCZ012>017-030>032-292200-
NORTH CENTRAL AND EASTERN NORTH CAROLINA

CITY           SKY/WX    TMP DP  RH WIND       PRES   REMARKS
ROANOKE RAPIDS FAIR      86  72  62 S8        30.12S
RALEIGH        PTSUNNY   88  70  55 SW12      30.13F
ELIZABETH CITY SUNNY     86  73  65 SW14      30.11F
AHOSKIE*         N/A     86  72  63 S3        30.12S
EDENTON*       SUNNY     88  71  57 SW8       30.13F
CURRITUCK*     SUNNY     88  70  55 S8G20     30.12S
KILL DEVIL HLS SUNNY     83  71  67 S8G18     30.12F
MANTEO         MOSUNNY   81  72  75 SW20      30.14S
CAPE HATTERAS  SUNNY     80  71  74 SW10G17   30.20S HAZE
TARBORO*       NOT AVBL
GOLDSBORO      MOSUNNY   87  70  56 S8        30.12F
WASHINGTON     MOSUNNY   86  71  59 SW8       30.14S
GREENVILLE     MOSUNNY   86  70  58 SW9       30.15S HAZE
NEW BERN       MOSUNNY   86  73  65 S9        30.16F
WILMINGTON     MOSUNNY   83  70  64 S12       30.18F
$$

VAZ048-292200-
ELSEWHERE

CITY           SKY/WX    TMP DP  RH WIND       PRES   REMARKS
HARRISBURG PA  CLOUDY    82  64  54 NW6       30.03F
BALTIMORE      CLOUDY    86  63  45 W10       30.02F
ANNAPOLIS      CLOUDY    90  68  48 SW7       30.02F
ANDREWS AFB    NOT AVBL
PHILADELPHIA   CLOUDY    85  57  38 NW15G28   30.03S
HENDERSON NC   SUNNY     84  68  59 SW9       30.13S
GREENSBORO     PTSUNNY   86  72  62 SW14      30.13F
ROCKY MOUNT    MOSUNNY   87  70  56 SW8       30.13F
$$

VAZ100-292200-
MARINE

STATION/POSITION TIME  TEMP    WIND        PRES    WAVE   SWELL
                       AIR SEA DIR/SP/G            HT/PER HT/PER
                 (UTC) (F)     (DEG/KT/KT) (MB)    (FT/S) (FT/S)
CAPE MAY NJ      2048   80 61  320/  3/  6 1017.0R
LEWES DE         2048   88 59  240/  8/ 13 1016.9R
15NM E FENWICK I 2050   63 57  200/ 16/ 17 1017.5F   4/ 6   2/ 8
OCEAN-CITY-INLET 2048      63  210/ 10/ 12 1017.7F
WACHAPREAGUE VA  2042   87 79  210/  7/ 15 1017.6F
THOMAS POINT MD  2100   82 61  220/  3/  4   N/A
GOOSES REEF MD   2100   80 60  270/  6/  6 1017.8    1
COVE POINT MD    2042   87     260/  6/ 12 1017.7S
SOLOMONS ISLAND  2042   85 63  250/ 12/ 13   N/A
BISHOPS HEAD MD  2048   74 74  150/  6/  9 1018.1F
PINEY POINT MD   2048          270/ 10/ 11   N/A
POTOMAC MD       2100   77 69  250/  6/  8 1016.5    1
CAMBRIDGE MD     2042   89 68                N/A
LEWISETTA VA     2042   87 72  240/  9/ 10 1017.3S
RAPPAHANNOCK LGT 2048          190/ 13/ 15 1018.5F
STINGRAY PT      2100   78 67  260/  8/ 10 1018.1    0
YORK RVR RNG VA  2042   83     230/ 16/ 18 1017.4F
YORKTOWN VA      2042   87 67  220/ 14/ 19 1017.7F
JAMESTOWN VA     2100   85 72  230/ 14/ 17   N/A     1
DOMINION TERM VA 2042   82     250/ 12/ 13 1018.9F
KIPTOPEKE VA     2048      65  250/ 12/ 15   N/A
CHES BAY BRIDGE  2042   83 68  260/ 16/ 18 1018.4F
CAPE HENRY VA    2042   88     240/ 12/ 16   N/A
WILLOUBY STN VA  2042   82     240/ 18/ 19 1019.4F
S CRANEY ISL VA  2042   88     240/ 10/ 16 1018.8S
CAPE HENRY BUOY  2042      64                N/A     2/ 7
1ST LANDING BUOY 2100   78 64              1018.5    1
CAPE CHARLES BUO 2051      65                N/A     2/ 8
64NM E OF VA BCH 2050   64 58  210/ 16/ 17 1020.5F   3/ 6   2/ 7
DUCK PIER NC     2042   84 58  220/  9/ 11 1019.7S
44100 DUCK FRF   2035      63                N/A     3/ 7
44056 DUCK FRF   2030      62                N/A     2/ 7
OREGON INLET NC  2042   76 79  190/ 20/ 26 1021.1F
HATTERAS NC      2042   77 74  200/ 11/ 16 1022.5R
DIAMOND SHLS NC  2050   77 76  220/ 14/ 16 1022.8F   4/ 4   2/ 8
CAPE LOOKOUT NC  2100   77     200/ 13/ 16 1022.2F
$$




USA.gov is the U.S. government's official web portal to all federal, state and local government web resources and services.